www.pogodaiklimat.ru

Погода и климат >> Архив погоды >> Россия >> Якутия >> Делянкир


ПОГОДА в Делянкире

  • Прогноз погоды в Делянкире
  • Монитор погоды в Делянкире
  • Климат города

АРХИВ ПОГОДЫ в Делянкире

Время (UTC), дата Ветер
(напр.,м/с)
 
Видим.   Явления Облачность Т
(С)
Тd
(С)
f
(%)
Тe
(С)
Тes
(С)
Комфортность P
(гПа)
Po
(гПа)
Тmin
(С)
Tmax
(С)
R
(мм)
R24
(мм)
S
(см)
09 13.09 СВ 1 50 км 8/5 1000 м
[Sc Ci fib]
+4.3 -3.2 58 +3 +3 1019.1 924.4 +5.3 0.0
12 13.09 В 1 50 км 5/4 1000 м
[Sc]
-3.3 -6.5 78 -5 -5 1024.3 924.7
15 13.09 В 1 50 км ясно -4.8 -7.6 81 -7 -7 1022.9 924.6
18 13.09 штиль 0 50 км 3/3 1000 м
[Sc]
-8.2 -10.1 86 -9 -9 1026.1 924.5
21 13.09 штиль 0 50 км 8/0
[As trans Ci fib]
-8.5 -11.0 82 -9 -9 1023.8 924.2 -8.6
00 14.09 Ю 1 50 км 9/0
[As trans]
-2.5 -4.4 87 -5 -3 1020.3 923.2 -8.8
03 14.09 З 2 50 км 6/6 1000 м
[Sc]
+4.1 -7.0 44 +2 +4 1017.4 922.7
06 14.09 С 2 50 км 6/6 1000 м
[Sc]
+6.2 -7.6 36 +5 +5 1014.0 920.3
09 14.09 С 1 50 км 6/4 1000 м
[Sc As trans]
+5.3 -3.6 53 +5 +5 1012.9 919.1 +6.6
12 14.09 штиль 0 50 км 10/4 1000 м
[Sc As trans Ci fib]
-2.0 -4.8 81 -3 -3 1015.4 918.8
15 14.09 штиль 0 50 км 10/0
[As trans Ci fib]
-2.2 -4.4 85 -3 -3 1015.1 918.5
18 14.09 штиль 0 50 км 8/0
[As trans]
-3.6 -6.1 83 -5 -5 1015.1 918.0
21 14.09 В 1 50 км 5/5 1000 м
[Sc]
-4.7 -7.8 79 -7 -7 1014.8 917.4 -4.9
00 15.09 Ю 1 50 км ясно +3.6 -10.0 36 +2 +6 1011.2 916.9
03 15.09 С 2 50 км 3/3 1000 м
[Sc]
+8.0 -10.2 26 +7 +10 1008.5 915.8
06 15.09 С 3 50 км 3/3 1000 м
[Sc]
+9.9 -6.2 32 +8 +9 1007.1 915.2
09 15.09 С 3 50 км 4/3 1000 м
[Sc Ci fib]
+8.2 -1.8 49 +6 +6 1006.3 913.9 +10.4
12 15.09 штиль 0 50 км ясно -3.6 -6.8 78 -5 -5 1010.1 913.5
15 15.09 штиль 0 50 км ясно -6.5 -8.9 83 -7 -7 1011.6 913.8
18 15.09 штиль 0 50 км ясно -8.9 -10.9 85 -9 -9 1012.6 913.9
21 15.09 В 1 50 км 3/0
[Ci fib]
-9.3 -11.3 85 -12 -11 1012.4 913.6 -9.4 5
00 16.09 СЗ 1 50 км 3/0
[As trans]
+1.2 -9.0 47 -1 +2 1008.1 913.4
03 16.09 С 3 50 км ясно +7.7 -6.2 37 +6 +9 1004.7 912.3
06 16.09 С 2 50 км 3/0
[As trans]
+9.6 -5.4 34 +9 +10 1002.6 911.0
09 16.09 С 1 50 км 3/0
[As trans]
+8.4 -3.0 44 +8 +8 1003.6 911.5 +10.1
12 16.09 штиль 0 50 км ясно -4.4 -7.1 81 -5 -5 1008.0 911.4
15 16.09 В 1 50 км ясно -7.6 -10.2 82 -10 -10 1010.0 912.0
18 16.09 В 1 50 км ясно -9.4 -11.9 82 -12 -12 1011.0 912.3
21 16.09 штиль 0 50 км 4/3 1000 м
[Sc Ci fib]
-10.6 -12.6 85 -11 -11 1011.8 912.5 -10.9
00 17.09 штиль 0 50 км 4/0
[Ci fib]
-1.2 -5.5 73 -2 +2 1007.4 911.9
03 17.09 Ю 1 50 км 4/0
[As trans Ci fib]
+7.0 -5.7 40 +7 +11 1004.4 911.8
06 17.09 С 1 50 км 8/0
[As trans Cs]
+9.0 -8.0 29 +9 +10 1002.5 910.6
09 17.09 штиль 0 50 км 8/0
[As trans Ci fib]
+5.5 -5.2 46 +5 +5 1003.5 910.5 +9.5
12 17.09 Ю 1 50 км 3/0
[As trans]
-4.6 -7.3 81 -7 -7 1008.1 911.4
15 17.09 В 1 50 км 3/0
[As trans]
-2.8 -6.2 77 -5 -5 1008.4 912.3
18 17.09 В 1 50 км 4/0
[As trans]
-3.3 -6.1 81 -5 -5 1010.6 914.1
21 17.09 С 1 50 км 8/6 1000 м
[Sc As trans Ci fib]
-6.3 -9.0 81 -9 -9 1012.4 914.6 -7.2
00 18.09 СЗ 1 50 км 10/10 1000 м
[Sc]
-1.1 -4.0 81 -3 -3 1011.0 915.2
03 18.09 С 1 50 км 10/4 1000 м
[Sc As op]
+2.9 -3.6 62 +2 +2 1009.4 915.1
06 18.09 С 1 50 км 9/6 1000 м
[Sc As trans]
+6.6 +0.2 64 +6 +6 1007.5 914.6
09 18.09 В 1 50 км осадки на расстоянии 8/8 600 м
[Cb cap]
+4.9 +1.6 79 +4 +4 1008.0 914.5 +6.9
12 18.09 штиль 0 50 км 10/10 600 м
[Cb cap]
+0.8 -2.4 79 -0 -0 1009.2 914.2
15 18.09 штиль 0 50 км 10/10 600 м
[Cb cap]
-0.3 -3.4 80 -1 -1 1009.3 914.0
18 18.09 штиль 0 50 км 10/10 1000 м
[Sc]
-0.7 -3.5 81 -2 -2 1010.2 914.6
21 18.09 С 1 50 км 10/10 1000 м
[Sc]
+0.5 -1.8 85 -1 -1 1009.7 914.6 -0.7
00 19.09 С 2 50 км 10/10 1000 м
[Sc]
+3.8 -2.1 65 +1 +1 1008.9 914.9
03 19.09 СВ 3 50 км 9/9 1000 м
[Sc]
+7.8 -3.9 43 +6 +6 1006.5 914.0
06 19.09 В 3 50 км 10/10 1000 м
[Sc]
+7.1 -3.9 45 +5 +5 1006.3 913.6
09 19.09 В 3 50 км 8/6 1000 м
[Sc Ci fib]
+5.2 -1.0 64 +2 +2 1006.9 913.6 +8.8
12 19.09 В 2 50 км 8/8 1000 м
[Sc]
+3.2 -3.9 60 +1 +1 1009.0 914.8
15 19.09 СВ 2 50 км 10/10 1000 м
[Sc]
+2.1 -3.6 66 -1 -1 1009.7 915.1
18 19.09 С 1 50 км 10/10 1000 м
[Sc]
+1.3 -4.6 65 -0 -0 1011.2 916.2
21 19.09 С 2 50 км 10/4 1000 м
[Sc As op]
+0.6 -4.8 67 -3 -3 1010.9 915.7 0.0
00 20.09 С 1 50 км 10/0
[As op]
+2.2 -2.8 69 +1 +1 1010.8 916.1
03 20.09 СЗ 2 50 км 8/4 1000 м
[Sc As trans Ci fib]
+4.8 -3.5 55 +3 +4 1010.0 916.3
06 20.09 З 1 50 км 10/4 1000 м
[Sc As op]
+5.7 -2.6 55 +5 +5 1009.3 915.9

 

Местоположение метеостанции Делянкир (Якутия, Россия): широта 63.83 долгота 145.60 высота над уровнем моря 801 м.

В архиве по умолчанию представлена погода в Делянкире за последнюю неделю. Архивные данные за месяц целиком и за предыдущие месяцы, начиная с января 2011 года, Вы можете получить, выбрав интересующий диапазон дат из раскрывающегося списка и нажав кнопку "Ввод!".


*Определитесь, кто Вы:
робот инопланетянин человек

Внимание! Время в таблицах - всемирное. Для получения местного времени необходимо прибавить поправку, которая в Делянкире равна 10 ч.

Смотрите также архив погоды в соседних городах и на ближайших метеорологических станциях:

Погода в Оймяконе (Якутия, Россия) (140 км)
Погода в Усть-Нере (Якутия, Россия) (144 км)
Погода в Сусумане (Магаданская область, Россия) (171 км)
Погода в Юртах (Якутия, Россия) (187 км)
Погода в Агаякане (Якутия, Россия) (201 км)
Погода в Колымской (Магаданская область, Россия) (242 км)
Погода в Ягодной (Магаданская область, Россия) (249 км)
Погода в Совхозе Эльген (Магаданская область, Россия) (275 км)
Погода в Озере Джека Лондона (Магаданская область, Россия) (277 км)
Погода в Восточной (Якутия, Россия) (305 км)

Пояснения к столбцам:

Ветер - указаны скорость ветра в м/с - средняя за 10 мин, порывы в срок и между сроками (в фигурных скобках) и направление, откуда дует ветер: С - северный, СВ - северо-восточный, В - восточный, ЮВ - юго-восточный, Ю - южный, ЮЗ - юго-западный, З - западный, СЗ - северо-западный.
Видимость - горизонтальная дальность видимости в метрах или километрах. При видимости от 1 до 10 км при отсутствии осадков обычно наблюдается дымка, при ухудшении видимости до 1 км и менее - туман. В сухую погоду видимость может ухудшаться дымом, пылью или мглою.
Явления - указаны атмосферные явления, наблюдавшиеся в срок или в последний час перед сроком; фигурными скобками обозначены явления, наблюдавшиеся между сроками (за 1-3 часа до срока); квадратными скобками обозначены град или гололедные отложения с указанием их диаметра в мм.
Облачность - указаны через наклонную черту общая и нижняя облачность в баллах и высота нижней границы облаков в метрах; квадратными скобками обозначены формы облаков: Ci - перистые, Cs - перисто-слоистые, Cc - перисто-кучевые, Ac - высококучевые, As - высокослоистые, Sc - слоисто-кучевые, Ns - слоисто-дождевые, Cu - кучевые, Cb - кучево-дождевые. Подробнее классификацию облаков см. в Атласе облаков (PDF).
T - Температура воздуха - температура, измеренная на высоте 2 м над землей.
Td - Температура точки росы - температура, при понижении до которой содержащийся в воздухе водяной пар достигнет насыщения.
f - Относительная влажность воздуха - влажноcть воздуха, измеренная на высоте 2 м над землей.
Te - Эффективная температура - температура, которую ощущает одетый по сезону человек в тени. Характеристика душности погоды. При расчете учитывается влияние влажности воздуха и скорости ветра на теплоощущения человека.
Tes - Эффективная температура на солнце - температура, которую ощущает человек, с поправкой на солнечный нагрев. Характеристика знойности погоды. Зависит от высоты солнца над горизонтом, облачности и скорости ветра. Ночью, в пасмурную погоду, а также при ветре 12 м/с и более поправка равна нулю.
P - Атмосферное давление - приведенное к уровню моря атмосферное давление.
Po - Атмосферное давление - измеренное на уровне метеостанции атмосферное давление.
Tmin - Минимальная температура - минимум температуры воздуха на высоте 2 м над землей.
Tmax - Максимальная температура - максимум температуры воздуха на высоте 2 м над землей.
R - Количество осадков - Количество выпавших осадков за период времени, мм. При наведении курсора мыши на число - период времени, за который выпало указанное количество осадков.
R24 - Количество осадков - Количество выпавших осадков за 24 часа, мм.
S - Снежный покров - Высота снежного покрова, см. При наведении курсора мыши на число - состояние снежного покрова и степень покрытия местности в баллах.